TimeEST,TemperatureF,Dew PointF,Humidity,Sea Level PressureIn,VisibilityMPH,Wind Direction,Wind SpeedMPH,Gust SpeedMPH,PrecipitationIn,Events,Conditions,WindDirDegrees,DateUTC
12:54 AM,30.9,26.1,82,30.22,10.0,Calm,Calm,-,N/A,,Clear,0,2012-11-09 05:54:00
1:54 AM,30.0,26.1,85,30.22,10.0,Calm,Calm,-,N/A,,Clear,0,2012-11-09 06:54:00
2:54 AM,30.0,26.1,85,30.22,10.0,Calm,Calm,-,N/A,,Clear,0,2012-11-09 07:54:00
3:54 AM,28.9,26.1,89,30.24,10.0,Calm,Calm,-,N/A,,Clear,0,2012-11-09 08:54:00
4:54 AM,28.9,25.0,85,30.25,10.0,Calm,Calm,-,N/A,,Clear,0,2012-11-09 09:54:00
5:54 AM,28.0,25.0,88,30.27,10.0,Calm,Calm,-,N/A,,Clear,0,2012-11-09 10:54:00
6:54 AM,27.0,25.0,92,30.29,10.0,Calm,Calm,-,N/A,,Clear,0,2012-11-09 11:54:00
7:54 AM,28.9,26.1,89,30.31,10.0,Calm,Calm,-,N/A,,Clear,0,2012-11-09 12:54:00
8:54 AM,35.1,28.9,78,30.32,10.0,Calm,Calm,-,N/A,,Clear,0,2012-11-09 13:54:00
9:54 AM,41.0,30.9,67,30.32,10.0,Calm,Calm,-,N/A,,Clear,0,2012-11-09 14:54:00
10:54 AM,48.0,30.0,50,30.31,10.0,SW,4.6,-,N/A,,Clear,220,2012-11-09 15:54:00
11:54 AM,52.0,30.0,43,30.28,10.0,Calm,Calm,-,N/A,,Clear,0,2012-11-09 16:54:00
12:54 PM,55.9,30.9,39,30.25,10.0,Calm,Calm,-,N/A,,Clear,0,2012-11-09 17:54:00
1:54 PM,57.0,30.0,36,30.22,10.0,Calm,Calm,-,N/A,,Clear,0,2012-11-09 18:54:00
2:54 PM,59.0,30.9,35,30.21,10.0,WNW,3.5,-,N/A,,Clear,290,2012-11-09 19:54:00
3:54 PM,60.1,30.0,32,30.20,10.0,Calm,Calm,-,N/A,,Clear,0,2012-11-09 20:54:00
4:54 PM,59.0,28.9,32,30.20,10.0,Calm,Calm,-,N/A,,Clear,0,2012-11-09 21:54:00
5:54 PM,54.0,28.9,38,30.21,10.0,Calm,Calm,-,N/A,,Clear,0,2012-11-09 22:54:00
6:54 PM,48.9,30.0,48,30.22,10.0,Calm,Calm,-,N/A,,Clear,0,2012-11-09 23:54:00
7:54 PM,45.0,30.9,58,30.23,10.0,Calm,Calm,-,N/A,,Clear,0,2012-11-10 00:54:00
8:54 PM,43.0,30.9,62,30.22,10.0,Calm,Calm,-,N/A,,Clear,0,2012-11-10 01:54:00
9:54 PM,42.1,30.9,65,30.22,10.0,Calm,Calm,-,N/A,,Clear,0,2012-11-10 02:54:00
10:54 PM,37.9,30.9,76,30.22,10.0,Calm,Calm,-,N/A,,Clear,0,2012-11-10 03:54:00
11:54 PM,37.9,30.0,73,30.22,10.0,Calm,Calm,-,N/A,,Clear,0,2012-11-10 04:54:00